WetterOnline ( http://www.wetteronline.de )

Wetter aktuell Pfälzer Wald (in 400m)

Aktuelles Wetter: Weinbiet/Pfalz (557m)

6-stündlich | Neueste Meldungen
Ortszeit Temperatur Wetter
Di, 16.10. 20:00 17.7° C fast wolkenlos
Di, 16.10. 14:00 20.3° C wolkenlos
Di, 16.10. 8:00 15.2° C wolkenlos
Di, 16.10. 2:00 16.5° C fast wolkenlos
Mo, 15.10. 20:00 18.0° C wolkenlos
Mo, 15.10. 14:00 21.1° C wolkenlos
Mo, 15.10. 8:00 17.1° C wolkenlos
Mo, 15.10. 2:00 16.7° C wolkenlos
Ortszeit Temperatur Wetter
Di, 16.10. 20:00 17.7° C fast wolkenlos
Di, 16.10. 19:40 18.0° C fast wolkenlos
Di, 16.10. 19:30 18.1° C wolkenlos
Di, 16.10. 19:20 18.1° C wolkenlos
Di, 16.10. 19:10 18.2° C fast wolkenlos
Di, 16.10. 19:00 18.3° C fast wolkenlos
Di, 16.10. 18:50 18.3° C fast wolkenlos
Di, 16.10. 18:30 18.3° C wolkenlos
Di, 16.10. 18:00 18.9° C wolkenlos
Di, 16.10. 17:30 19.5° C wolkenlos
Di, 16.10. 17:00 20.0° C wolkenlos
Di, 16.10. 16:30 20.5° C wolkenlos
Ortszeit Relative Feuchte Sichtweite
Di, 16.10. 20:00 56% 10 km
Di, 16.10. 14:00 43% 9 km
Di, 16.10. 8:00 57% 10 km
Di, 16.10. 2:00 54% 10 km
Mo, 15.10. 20:00 49% 10 km
Mo, 15.10. 14:00 40% 10 km
Mo, 15.10. 8:00 51% 10 km
Mo, 15.10. 2:00 55% 10 km
Ortszeit Relative Feuchte Sichtweite
Di, 16.10. 20:00 56% 10 km
Di, 16.10. 19:40 55% -
Di, 16.10. 19:30 53% 10 km
Di, 16.10. 19:20 53% -
Di, 16.10. 19:10 52% -
Di, 16.10. 19:00 50% 9 km
Di, 16.10. 18:50 50% -
Di, 16.10. 18:30 51% 10 km
Di, 16.10. 18:00 48% 9 km
Di, 16.10. 17:30 44% 10 km
Di, 16.10. 17:00 41% 10 km
Di, 16.10. 16:30 41% 10 km
Ortszeit Niederschlagsmenge Niederschlagsart
Di, 16.10. 20:00 0.0 l/m2 in 12 Std. -
Di, 16.10. 14:00 0.0 l/m2 in 6 Std. -
Di, 16.10. 8:00 0.0 l/m2 in 12 Std. -
Di, 16.10. 2:00 0.0 l/m2 in 6 Std. -
Mo, 15.10. 20:00 0.0 l/m2 in 12 Std. -
Mo, 15.10. 14:00 0.0 l/m2 in 6 Std. -
Mo, 15.10. 8:00 0.0 l/m2 in 12 Std. -
Mo, 15.10. 2:00 0.0 l/m2 in 6 Std. -
Ortszeit Niederschlagsmenge Niederschlagsart
Di, 16.10. 20:00 0.0 l/m2 in 1 Std. -
Di, 16.10. 19:40 keine Meldung -
Di, 16.10. 19:30 0.0 l/m2 in 1 Std. -
Di, 16.10. 19:20 keine Meldung -
Di, 16.10. 19:10 keine Meldung -
Di, 16.10. 19:00 0.0 l/m2 in 1 Std. -
Di, 16.10. 18:50 keine Meldung -
Di, 16.10. 18:30 0.0 l/m2 in 1 Std. -
Di, 16.10. 18:00 0.0 l/m2 in 1 Std. -
Di, 16.10. 17:30 0.0 l/m2 in 1 Std. -
Di, 16.10. 17:00 0.0 l/m2 in 1 Std. -
Di, 16.10. 16:30 0.0 l/m2 in 1 Std. -
Ortszeit Stärke Spitze Richtung
km/h Bft. km/h Grad Sektor
Di, 16.10. 20:00 22 4 35 40° NO
Di, 16.10. 14:00 13 3 30 70° O
Di, 16.10. 8:00 22 4 29 40° NO
Di, 16.10. 2:00 13 3 30 50° NO
Mo, 15.10. 20:00 22 4 32 40° NO
Mo, 15.10. 14:00 11 2 29 60° NO
Mo, 15.10. 8:00 11 2 22 350° N
Mo, 15.10. 2:00 18 3 32 280° W
Ortszeit Stärke Spitze Richtung
km/h Bft. km/h Grad Sektor
Di, 16.10. 20:00 22 4 35 40° NO
Di, 16.10. 19:40 24 4 - 40° NO
Di, 16.10. 19:30 24 4 31 40° NO
Di, 16.10. 19:20 24 4 - 40° NO
Di, 16.10. 19:10 20 4 - 30° NO
Di, 16.10. 19:00 18 3 25 20° N
Di, 16.10. 18:50 18 3 - 20° N
Di, 16.10. 18:30 14 3 18 10° N
Di, 16.10. 18:00 13 3 17 20° N
Di, 16.10. 17:30 11 2 14 30° NO
Di, 16.10. 17:00 7 2 17 40° NO
Di, 16.10. 16:30 7 2 14 50° NO
Ortszeit Untergrenze Bedeckung Gattung
total tief tief mittel hoch
Di, 16.10. 20:00 3000 m 1/8 1/8 - - -
Di, 16.10. 14:00 - 0/8 0/8 - - -
Di, 16.10. 8:00 - 0/8 0/8 - - -
Di, 16.10. 2:00 3000 m 1/8 1/8 - - -
Mo, 15.10. 20:00 - 0/8 0/8 - - -
Mo, 15.10. 14:00 - 0/8 0/8 - - -
Mo, 15.10. 8:00 - 0/8 0/8 - - -
Mo, 15.10. 2:00 - 0/8 0/8 - - -
Ortszeit Bedeckungsgrad in Achtel und Wolkenuntergrenze
Di, 16.10. 20:00 1(3000m)
Di, 16.10. 19:40 1(3000m)
Di, 16.10. 19:30 keine Wolken
Di, 16.10. 19:20 keine Wolken
Di, 16.10. 19:10 1(3000m)
Di, 16.10. 19:00 1(3000m)
Di, 16.10. 18:50 1(3000m)
Di, 16.10. 18:30 1(2700m)
Di, 16.10. 18:00 keine Wolken
Di, 16.10. 17:30 keine Wolken
Di, 16.10. 17:00 keine Wolken
Di, 16.10. 16:30 keine Wolken
Ortszeit Luftdruck NN (hPa) Tendenz (hPa in 3 Std.)
Di, 16.10. 20:00 1019 + 0,3
Di, 16.10. 14:00 1018 + 0,3
Di, 16.10. 8:00 1018 + 0,7
Di, 16.10. 2:00 1016 + 0,4
Mo, 15.10. 20:00 1015 + 0,9
Mo, 15.10. 14:00 1013 - 0,1
Mo, 15.10. 8:00 1013 + 0,7
Mo, 15.10. 2:00 1012 + 0,2
Ortszeit Luftdruck NN (hPa) Tendenz (hPa in 3 Std.)
Di, 16.10. 20:00 1019 + 0,3
Di, 16.10. 19:40 1019 keine Meldung
Di, 16.10. 19:30 1019 + 0,2
Di, 16.10. 19:20 1019 keine Meldung
Di, 16.10. 19:10 1019 keine Meldung
Di, 16.10. 19:00 1019 + 0,1
Di, 16.10. 18:50 1019 keine Meldung
Di, 16.10. 18:30 1019 0,0
Di, 16.10. 18:00 1018 - 0,1
Di, 16.10. 17:30 1018 - 0,1
Di, 16.10. 17:00 1018 0,0
Di, 16.10. 16:30 1018 0,0
Ortszeit Schneehöhe (cm)
Di, 16.10. 20:00 0
Di, 16.10. 14:00 0
Di, 16.10. 8:00 0
Di, 16.10. 2:00 0
Mo, 15.10. 20:00 0
Mo, 15.10. 14:00 0
Mo, 15.10. 8:00 0
Mo, 15.10. 2:00 0
Ortszeit Schneehöhe (cm)
Di, 16.10. 20:00 0
Di, 16.10. 19:40 0
Di, 16.10. 19:30 0
Di, 16.10. 19:20 0
Di, 16.10. 19:10 0
Di, 16.10. 19:00 0
Di, 16.10. 18:50 0
Di, 16.10. 18:30 0
Di, 16.10. 18:00 0
Di, 16.10. 17:30 0
Di, 16.10. 17:00 0
Di, 16.10. 16:30 0
Link zu dieser Seite / Seite empfehlen

Das Wetter in ...